Year,Month,Day,Hour,Minute,Value (Times are PST for temperature in C)
2011,03,30,00,00,7.30
2011,03,30,00,01,7.30
2011,03,30,00,02,7.30
2011,03,30,00,03,7.30
2011,03,30,00,04,7.30
2011,03,30,00,05,7.30
2011,03,30,00,06,7.30
2011,03,30,00,07,7.30
2011,03,30,00,08,7.40
2011,03,30,00,09,7.30
2011,03,30,00,10,7.30
2011,03,30,00,11,7.40
2011,03,30,00,12,7.40
2011,03,30,00,13,7.40
2011,03,30,00,14,7.40
2011,03,30,00,15,7.40
2011,03,30,00,16,7.40
2011,03,30,00,17,7.40
2011,03,30,00,18,7.40
2011,03,30,00,19,7.40
2011,03,30,00,20,7.40
2011,03,30,00,21,7.40
2011,03,30,00,22,7.40
2011,03,30,00,23,7.40
2011,03,30,00,24,7.40
2011,03,30,00,25,7.40
2011,03,30,00,26,7.40
2011,03,30,00,27,7.40
2011,03,30,00,28,7.40
2011,03,30,00,29,7.40
2011,03,30,00,30,7.40
2011,03,30,00,31,7.40
2011,03,30,00,32,7.40
2011,03,30,00,33,7.40
2011,03,30,00,34,7.40
2011,03,30,00,35,7.40
2011,03,30,00,36,7.40
2011,03,30,00,37,7.40
2011,03,30,00,38,7.40
2011,03,30,00,39,7.40
2011,03,30,00,40,7.40
2011,03,30,00,41,7.40
2011,03,30,00,42,7.40
2011,03,30,00,43,7.40
2011,03,30,00,44,7.40
2011,03,30,00,45,7.40
2011,03,30,00,46,7.40
2011,03,30,00,47,7.40
2011,03,30,00,48,7.40
2011,03,30,00,49,7.40
2011,03,30,00,50,7.40
2011,03,30,00,51,7.40
2011,03,30,00,52,7.50
2011,03,30,00,53,7.50
2011,03,30,00,54,7.50
2011,03,30,00,55,7.50
2011,03,30,00,56,7.50
2011,03,30,00,57,7.50
2011,03,30,00,58,7.50
2011,03,30,00,59,7.50
2011,03,30,01,00,7.50
2011,03,30,01,01,7.50
2011,03,30,01,02,7.50
2011,03,30,01,03,7.50
2011,03,30,01,04,7.50
2011,03,30,01,05,7.50
2011,03,30,01,06,7.50
2011,03,30,01,07,7.50
2011,03,30,01,08,7.50
2011,03,30,01,09,7.50
2011,03,30,01,10,7.50
2011,03,30,01,11,7.50
2011,03,30,01,12,7.60
2011,03,30,01,13,7.60
2011,03,30,01,14,7.60
2011,03,30,01,15,7.60
2011,03,30,01,16,7.60
2011,03,30,01,17,7.60
2011,03,30,01,18,7.60
2011,03,30,01,19,7.60
2011,03,30,01,20,7.60
2011,03,30,01,21,7.60
2011,03,30,01,22,7.50
2011,03,30,01,23,7.50
2011,03,30,01,24,7.50
2011,03,30,01,25,7.50
2011,03,30,01,26,7.50
2011,03,30,01,27,7.50
2011,03,30,01,28,7.40
2011,03,30,01,29,7.40
2011,03,30,01,30,7.40
2011,03,30,01,31,7.40
2011,03,30,01,32,7.40
2011,03,30,01,33,7.40
2011,03,30,01,34,7.40
2011,03,30,01,35,7.40
2011,03,30,01,36,7.40
2011,03,30,01,37,7.40
2011,03,30,01,38,7.40
2011,03,30,01,39,7.40
2011,03,30,01,40,7.40
2011,03,30,01,41,7.40
2011,03,30,01,42,7.40
2011,03,30,01,43,7.40
2011,03,30,01,44,7.40
2011,03,30,01,45,7.40
2011,03,30,01,46,7.40
2011,03,30,01,47,7.40
2011,03,30,01,48,7.50
2011,03,30,01,49,7.50
2011,03,30,01,50,7.50
2011,03,30,01,51,7.50
2011,03,30,01,52,7.50
2011,03,30,01,53,7.50
2011,03,30,01,54,7.50
2011,03,30,01,55,7.60
2011,03,30,01,56,7.60
2011,03,30,01,57,7.60
2011,03,30,01,58,7.60
2011,03,30,01,59,7.60
2011,03,30,02,00,7.60
2011,03,30,02,01,7.60
2011,03,30,02,02,7.60
2011,03,30,02,03,7.60
2011,03,30,02,04,7.60
2011,03,30,02,05,7.60
2011,03,30,02,06,7.60
2011,03,30,02,07,7.60
2011,03,30,02,08,7.60
2011,03,30,02,09,7.60
2011,03,30,02,10,7.60
2011,03,30,02,11,7.60
2011,03,30,02,12,7.60
2011,03,30,02,13,7.60
2011,03,30,02,14,7.60
2011,03,30,02,15,7.60
2011,03,30,02,16,7.60
2011,03,30,02,17,7.60
2011,03,30,02,18,7.60
2011,03,30,02,19,7.60
2011,03,30,02,20,7.60
2011,03,30,02,21,7.60
2011,03,30,02,22,7.60
2011,03,30,02,23,7.60
2011,03,30,02,24,7.60
2011,03,30,02,25,7.60
2011,03,30,02,26,7.60
2011,03,30,02,27,7.60
2011,03,30,02,28,7.60
2011,03,30,02,29,7.60
2011,03,30,02,30,7.60
2011,03,30,02,31,7.60
2011,03,30,02,32,7.60
2011,03,30,02,33,7.60
2011,03,30,02,34,7.60
2011,03,30,02,35,7.60
2011,03,30,02,36,7.60
2011,03,30,02,37,7.60
2011,03,30,02,38,7.60
2011,03,30,02,39,7.60
2011,03,30,02,40,7.60
2011,03,30,02,41,7.70
2011,03,30,02,42,7.70
2011,03,30,02,43,7.70
2011,03,30,02,44,7.70
2011,03,30,02,45,7.70
2011,03,30,02,46,7.70
2011,03,30,02,47,7.70
2011,03,30,02,48,7.70
2011,03,30,02,49,7.70
2011,03,30,02,50,7.70
2011,03,30,02,51,7.70
2011,03,30,02,52,7.70
2011,03,30,02,53,7.70
2011,03,30,02,54,7.70
2011,03,30,02,55,7.70
2011,03,30,02,56,7.70
2011,03,30,02,57,7.70
2011,03,30,02,58,7.70
2011,03,30,02,59,7.70
2011,03,30,03,00,7.70
2011,03,30,03,01,7.70
2011,03,30,03,02,7.70
2011,03,30,03,03,7.70
2011,03,30,03,04,7.70
2011,03,30,03,05,7.70
2011,03,30,03,06,7.70
2011,03,30,03,07,7.70
2011,03,30,03,08,7.70
2011,03,30,03,09,7.70
2011,03,30,03,10,7.70
2011,03,30,03,11,7.70
2011,03,30,03,12,7.70
2011,03,30,03,13,7.70
2011,03,30,03,14,7.70
2011,03,30,03,15,7.70
2011,03,30,03,16,7.70
2011,03,30,03,17,7.70
2011,03,30,03,18,7.70
2011,03,30,03,19,7.70
2011,03,30,03,20,7.70
2011,03,30,03,21,7.60
2011,03,30,03,22,7.60
2011,03,30,03,23,7.60
2011,03,30,03,24,7.60
2011,03,30,03,25,7.60
2011,03,30,03,26,7.60
2011,03,30,03,27,7.60
2011,03,30,03,28,7.60
2011,03,30,03,29,7.60
2011,03,30,03,30,7.60
2011,03,30,03,31,7.60
2011,03,30,03,32,7.60
2011,03,30,03,33,7.60
2011,03,30,03,34,7.60
2011,03,30,03,35,7.60
2011,03,30,03,36,7.60
2011,03,30,03,37,7.60
2011,03,30,03,38,7.60
2011,03,30,03,39,7.60
2011,03,30,03,40,7.50
2011,03,30,03,41,7.50
2011,03,30,03,42,7.50
2011,03,30,03,43,7.50
2011,03,30,03,44,7.50
2011,03,30,03,45,7.50
2011,03,30,03,46,7.60
2011,03,30,03,47,7.60
2011,03,30,03,48,7.60
2011,03,30,03,49,7.60
2011,03,30,03,50,7.60
2011,03,30,03,51,7.60
2011,03,30,03,52,7.60
2011,03,30,03,53,7.60
2011,03,30,03,54,7.60
2011,03,30,03,55,7.60
2011,03,30,03,56,7.60
2011,03,30,03,57,7.60
2011,03,30,03,58,7.60
2011,03,30,03,59,7.60
2011,03,30,04,00,7.60
2011,03,30,04,01,7.60
2011,03,30,04,02,7.60
2011,03,30,04,03,7.60
2011,03,30,04,04,7.60
2011,03,30,04,05,7.60
2011,03,30,04,06,7.60
2011,03,30,04,07,7.60
2011,03,30,04,08,7.60
2011,03,30,04,09,7.60
2011,03,30,04,10,7.60
2011,03,30,04,11,7.60
2011,03,30,04,12,7.60
2011,03,30,04,13,7.60
2011,03,30,04,14,7.60
2011,03,30,04,15,7.60
2011,03,30,04,16,7.60
2011,03,30,04,17,7.60
2011,03,30,04,18,7.60
2011,03,30,04,19,7.60
2011,03,30,04,20,7.50
2011,03,30,04,21,7.50
2011,03,30,04,22,7.50
2011,03,30,04,23,7.50
2011,03,30,04,24,7.50
2011,03,30,04,25,7.50
2011,03,30,04,26,7.50
2011,03,30,04,27,7.50
2011,03,30,04,28,7.50
2011,03,30,04,29,7.50
2011,03,30,04,30,7.50
2011,03,30,04,31,7.50
2011,03,30,04,32,7.50
2011,03,30,04,33,7.50
2011,03,30,04,34,7.50
2011,03,30,04,35,7.50
2011,03,30,04,36,7.50
2011,03,30,04,37,7.50
2011,03,30,04,38,7.50
2011,03,30,04,39,7.50
2011,03,30,04,40,7.40
2011,03,30,04,41,7.40
2011,03,30,04,42,7.40
2011,03,30,04,43,7.40
2011,03,30,04,44,7.40
2011,03,30,04,45,7.40
2011,03,30,04,46,7.40
2011,03,30,04,47,7.40
2011,03,30,04,48,7.40
2011,03,30,04,49,7.40
2011,03,30,04,50,7.40
2011,03,30,04,51,7.40
2011,03,30,04,52,7.40
2011,03,30,04,53,7.40
2011,03,30,04,54,7.40
2011,03,30,04,55,7.40
2011,03,30,04,56,7.40
2011,03,30,04,57,7.40
2011,03,30,04,58,7.40
2011,03,30,04,59,7.40
2011,03,30,05,00,7.40
2011,03,30,05,01,7.40
2011,03,30,05,02,7.40
2011,03,30,05,03,7.40
2011,03,30,05,04,7.40
2011,03,30,05,05,7.40
2011,03,30,05,06,7.40
2011,03,30,05,07,7.40
2011,03,30,05,08,7.40
2011,03,30,05,09,7.40
2011,03,30,05,10,7.40
2011,03,30,05,11,7.40
2011,03,30,05,12,7.40
2011,03,30,05,13,7.40
2011,03,30,05,14,7.40
2011,03,30,05,15,7.40
2011,03,30,05,16,7.40
2011,03,30,05,17,7.40
2011,03,30,05,18,7.40
2011,03,30,05,19,7.40
2011,03,30,05,20,7.40
2011,03,30,05,21,7.40
2011,03,30,05,22,7.40
2011,03,30,05,23,7.40
2011,03,30,05,24,7.40
2011,03,30,05,25,7.40
2011,03,30,05,26,7.40
2011,03,30,05,27,7.40
2011,03,30,05,28,7.40
2011,03,30,05,29,7.40
2011,03,30,05,30,7.40
2011,03,30,05,31,7.40
2011,03,30,05,32,7.40
2011,03,30,05,33,7.40
2011,03,30,05,34,7.40
2011,03,30,05,35,7.40
2011,03,30,05,36,7.40
2011,03,30,05,37,7.40
2011,03,30,05,38,7.40
2011,03,30,05,39,7.40
2011,03,30,05,40,7.40
2011,03,30,05,41,7.40
2011,03,30,05,42,7.40
2011,03,30,05,43,7.40
2011,03,30,05,44,7.30
2011,03,30,05,45,7.30
2011,03,30,05,46,7.30
2011,03,30,05,47,7.30
2011,03,30,05,48,7.30
2011,03,30,05,49,7.30
2011,03,30,05,50,7.30
2011,03,30,05,51,7.30
2011,03,30,05,52,7.30
2011,03,30,05,53,7.30
2011,03,30,05,54,7.30
2011,03,30,05,55,7.30
2011,03,30,05,56,7.30
2011,03,30,05,57,7.30
2011,03,30,05,58,7.30
2011,03,30,05,59,7.30
2011,03,30,06,00,7.30
2011,03,30,06,01,7.30
2011,03,30,06,02,7.30
2011,03,30,06,03,7.30
2011,03,30,06,04,7.30
2011,03,30,06,05,7.30
2011,03,30,06,06,7.30
2011,03,30,06,07,7.30
2011,03,30,06,08,7.30
2011,03,30,06,09,7.30
2011,03,30,06,10,7.30
2011,03,30,06,11,7.30
2011,03,30,06,12,7.30
2011,03,30,06,13,7.30
2011,03,30,06,14,7.30
2011,03,30,06,15,7.30
2011,03,30,06,16,7.30
2011,03,30,06,17,7.30
2011,03,30,06,18,7.30
2011,03,30,06,19,7.30
2011,03,30,06,20,7.30
2011,03,30,06,21,7.30
2011,03,30,06,22,7.30
2011,03,30,06,23,7.30
2011,03,30,06,24,7.30
2011,03,30,06,25,7.30
2011,03,30,06,26,7.30
2011,03,30,06,27,7.30
2011,03,30,06,28,7.40
2011,03,30,06,29,7.40
2011,03,30,06,30,7.40
2011,03,30,06,31,7.40
2011,03,30,06,32,7.40
2011,03,30,06,33,7.40
2011,03,30,06,34,7.40
2011,03,30,06,35,7.40
2011,03,30,06,36,7.40
2011,03,30,06,37,7.40
2011,03,30,06,38,7.40
2011,03,30,06,39,7.40
2011,03,30,06,40,7.40
2011,03,30,06,41,7.40
2011,03,30,06,42,7.40
2011,03,30,06,43,7.40
2011,03,30,06,44,7.40
2011,03,30,06,45,7.40
2011,03,30,06,46,7.40
2011,03,30,06,47,7.40
2011,03,30,06,48,7.40
2011,03,30,06,49,7.40
2011,03,30,06,50,7.40
2011,03,30,06,51,7.40
2011,03,30,06,52,7.40
2011,03,30,06,53,7.40
2011,03,30,06,54,7.40
2011,03,30,06,55,7.40
2011,03,30,06,56,7.40
2011,03,30,06,57,7.40
2011,03,30,06,58,7.40
2011,03,30,06,59,7.40
2011,03,30,07,00,7.40
2011,03,30,07,01,7.40
2011,03,30,07,02,7.40
2011,03,30,07,03,7.40
2011,03,30,07,04,7.40
2011,03,30,07,05,7.40
2011,03,30,07,06,7.30
2011,03,30,07,07,7.30
2011,03,30,07,08,7.30
2011,03,30,07,09,7.30
2011,03,30,07,10,7.30
2011,03,30,07,11,7.30
2011,03,30,07,12,7.30
2011,03,30,07,13,7.30
2011,03,30,07,14,7.30
2011,03,30,07,15,7.30
2011,03,30,07,16,7.30
2011,03,30,07,17,7.30
2011,03,30,07,18,7.30
2011,03,30,07,19,7.30
2011,03,30,07,20,7.30
2011,03,30,07,21,7.30
2011,03,30,07,22,7.30
2011,03,30,07,23,7.30
2011,03,30,07,24,7.30
2011,03,30,07,25,7.30
2011,03,30,07,26,7.30
2011,03,30,07,27,7.30
2011,03,30,07,28,7.30
2011,03,30,07,29,7.30
2011,03,30,07,30,7.30
2011,03,30,07,31,7.30
2011,03,30,07,32,7.30
2011,03,30,07,33,7.20
2011,03,30,07,34,7.20
2011,03,30,07,35,7.20
2011,03,30,07,36,7.20
2011,03,30,07,37,7.20
2011,03,30,07,38,7.20
2011,03,30,07,39,7.20
2011,03,30,07,40,7.20
2011,03,30,07,41,7.20
2011,03,30,07,42,7.20
2011,03,30,07,43,7.20
2011,03,30,07,44,7.30
2011,03,30,07,45,7.30
2011,03,30,07,46,7.30
2011,03,30,07,47,7.30
2011,03,30,07,48,7.30
2011,03,30,07,49,7.30
2011,03,30,07,50,7.30
2011,03,30,07,51,7.30
2011,03,30,07,52,7.30
2011,03,30,07,53,7.30
2011,03,30,07,54,7.30
2011,03,30,07,55,7.20
2011,03,30,07,56,7.30
2011,03,30,07,57,7.30
2011,03,30,07,58,7.30
2011,03,30,07,59,7.30
2011,03,30,08,00,7.30
2011,03,30,08,01,7.30
2011,03,30,08,02,7.30
2011,03,30,08,03,7.30
2011,03,30,08,04,7.30
2011,03,30,08,05,7.30
2011,03,30,08,06,7.30
2011,03,30,08,07,7.30
2011,03,30,08,08,7.30
2011,03,30,08,09,7.30
2011,03,30,08,10,7.30
2011,03,30,08,11,7.30
2011,03,30,08,12,7.30
2011,03,30,08,13,7.30
2011,03,30,08,14,7.30
2011,03,30,08,15,7.30
2011,03,30,08,16,7.30
2011,03,30,08,17,7.30
2011,03,30,08,18,7.30
2011,03,30,08,19,7.30
2011,03,30,08,20,7.30
2011,03,30,08,21,7.30
2011,03,30,08,22,7.30
2011,03,30,08,23,7.40
2011,03,30,08,24,7.40
2011,03,30,08,25,7.40
2011,03,30,08,26,7.40
2011,03,30,08,27,7.40
2011,03,30,08,28,7.40
2011,03,30,08,29,7.40
2011,03,30,08,30,7.40
2011,03,30,08,31,7.40
2011,03,30,08,32,7.40
2011,03,30,08,33,7.50
2011,03,30,08,34,7.50
2011,03,30,08,35,7.50
2011,03,30,08,36,7.50
2011,03,30,08,37,7.50
2011,03,30,08,38,7.50
2011,03,30,08,39,7.50
2011,03,30,08,40,7.50
2011,03,30,08,41,7.50
2011,03,30,08,42,7.50
2011,03,30,08,43,7.60
2011,03,30,08,44,7.60
2011,03,30,08,45,7.60
2011,03,30,08,46,7.60
2011,03,30,08,47,7.60
2011,03,30,08,48,7.60
2011,03,30,08,49,7.60
2011,03,30,08,50,7.60
2011,03,30,08,51,7.60
2011,03,30,08,52,7.60
2011,03,30,08,53,7.60
2011,03,30,08,54,7.60
2011,03,30,08,55,7.60
2011,03,30,08,56,7.60
2011,03,30,08,57,7.60
2011,03,30,08,58,7.60
2011,03,30,08,59,7.60
2011,03,30,09,00,7.60
2011,03,30,09,01,7.60
2011,03,30,09,02,7.60
2011,03,30,09,03,7.60
2011,03,30,09,04,7.60
2011,03,30,09,05,7.60
2011,03,30,09,06,7.60
2011,03,30,09,07,7.60
2011,03,30,09,08,7.60
2011,03,30,09,09,7.60
2011,03,30,09,10,7.60
2011,03,30,09,11,7.60
2011,03,30,09,12,7.60
2011,03,30,09,13,7.60
2011,03,30,09,14,7.60
2011,03,30,09,15,7.60
2011,03,30,09,16,7.60
2011,03,30,09,17,7.60
2011,03,30,09,18,7.60
2011,03,30,09,19,7.70
2011,03,30,09,20,7.70
2011,03,30,09,21,7.70
2011,03,30,09,22,7.70
2011,03,30,09,23,7.70
2011,03,30,09,24,7.70
2011,03,30,09,25,7.80
2011,03,30,09,26,7.70
2011,03,30,09,27,7.70
2011,03,30,09,28,7.80
2011,03,30,09,29,7.80
2011,03,30,09,30,7.80
2011,03,30,09,31,7.80
2011,03,30,09,32,7.80
2011,03,30,09,33,7.80
2011,03,30,09,34,7.80
2011,03,30,09,35,7.80
2011,03,30,09,36,7.80
2011,03,30,09,37,7.80
2011,03,30,09,38,7.80
2011,03,30,09,39,7.80
2011,03,30,09,40,7.80
2011,03,30,09,41,7.90
2011,03,30,09,42,7.90
2011,03,30,09,43,7.90
2011,03,30,09,44,7.90
2011,03,30,09,45,8.00
2011,03,30,09,46,8.00
2011,03,30,09,47,8.00
2011,03,30,09,48,8.10
2011,03,30,09,49,8.10
2011,03,30,09,50,8.10
2011,03,30,09,51,8.10
2011,03,30,09,52,8.10
2011,03,30,09,53,8.10
2011,03,30,09,54,8.10
2011,03,30,09,55,8.10
2011,03,30,09,56,8.10
2011,03,30,09,57,8.10
2011,03,30,09,58,8.10
2011,03,30,09,59,8.10
2011,03,30,10,00,8.10
2011,03,30,10,01,8.10
2011,03,30,10,02,8.10
2011,03,30,10,03,8.10
2011,03,30,10,04,8.10
2011,03,30,10,05,8.10
2011,03,30,10,06,8.10
2011,03,30,10,07,8.20
2011,03,30,10,08,8.20
2011,03,30,10,09,8.20
2011,03,30,10,10,8.20
2011,03,30,10,11,8.20
2011,03,30,10,12,8.20
2011,03,30,10,13,8.20
2011,03,30,10,14,8.20
2011,03,30,10,15,8.20
2011,03,30,10,16,8.30
2011,03,30,10,17,8.30
2011,03,30,10,18,8.30
2011,03,30,10,19,8.30
2011,03,30,10,20,8.30
2011,03,30,10,21,8.30
2011,03,30,10,22,8.30
2011,03,30,10,23,8.30
2011,03,30,10,24,8.30
2011,03,30,10,25,8.30
2011,03,30,10,26,8.30
2011,03,30,10,27,8.30
2011,03,30,10,28,8.30
2011,03,30,10,29,8.40
2011,03,30,10,30,8.40
2011,03,30,10,31,8.40
2011,03,30,10,32,8.40
2011,03,30,10,33,8.40
2011,03,30,10,34,8.40
2011,03,30,10,35,8.40
2011,03,30,10,36,8.40
2011,03,30,10,37,8.40
2011,03,30,10,38,8.40
2011,03,30,10,39,8.40
2011,03,30,10,40,8.40
2011,03,30,10,41,8.30
2011,03,30,10,42,8.30
2011,03,30,10,43,8.30
2011,03,30,10,44,8.30
2011,03,30,10,45,8.30
2011,03,30,10,46,8.30
2011,03,30,10,47,8.30
2011,03,30,10,48,8.40
2011,03,30,10,49,8.40
2011,03,30,10,50,8.40
2011,03,30,10,51,8.50
2011,03,30,10,52,8.50
2011,03,30,10,53,8.40
2011,03,30,10,54,8.40
2011,03,30,10,55,8.40
2011,03,30,10,56,8.40
2011,03,30,10,57,8.40
2011,03,30,10,58,8.40
2011,03,30,10,59,8.40
2011,03,30,11,00,8.50
2011,03,30,11,01,8.50
2011,03,30,11,02,8.60
2011,03,30,11,03,8.60
2011,03,30,11,04,8.60
2011,03,30,11,05,8.60
2011,03,30,11,06,8.60
2011,03,30,11,07,8.60
2011,03,30,11,08,8.60
2011,03,30,11,09,8.60
2011,03,30,11,10,8.60
2011,03,30,11,11,8.70
2011,03,30,11,12,8.70
2011,03,30,11,13,8.70
2011,03,30,11,14,8.70
2011,03,30,11,15,8.70
2011,03,30,11,16,8.70
2011,03,30,11,17,8.80
2011,03,30,11,18,8.80
2011,03,30,11,19,8.80
2011,03,30,11,20,8.80
2011,03,30,11,21,8.90
2011,03,30,11,22,9.00
2011,03,30,11,23,9.10
2011,03,30,11,24,9.20
2011,03,30,11,25,9.20
2011,03,30,11,26,9.30
2011,03,30,11,27,9.30
2011,03,30,11,28,9.30
2011,03,30,11,29,9.30
2011,03,30,11,30,9.40
2011,03,30,11,31,9.40
2011,03,30,11,32,9.40
2011,03,30,11,33,9.40
2011,03,30,11,34,9.40
2011,03,30,11,35,9.40
2011,03,30,11,36,9.40
2011,03,30,11,37,9.40
2011,03,30,11,38,9.40
2011,03,30,11,39,9.50
2011,03,30,11,40,9.60
2011,03,30,11,41,9.60
2011,03,30,11,42,9.70
2011,03,30,11,43,9.70
2011,03,30,11,44,9.70
2011,03,30,11,45,9.70
2011,03,30,11,46,9.70
2011,03,30,11,47,9.80
2011,03,30,11,48,9.80
2011,03,30,11,49,9.90
2011,03,30,11,50,9.90
2011,03,30,11,51,9.90
2011,03,30,11,52,10.00
2011,03,30,11,53,10.00
2011,03,30,11,54,10.10
2011,03,30,11,55,10.10
2011,03,30,11,56,10.10
2011,03,30,11,57,10.10
2011,03,30,11,58,10.10
2011,03,30,11,59,10.10
2011,03,30,12,00,10.10
2011,03,30,12,01,10.10
2011,03,30,12,02,10.10
2011,03,30,12,03,10.10
2011,03,30,12,04,10.10
2011,03,30,12,05,10.10
2011,03,30,12,06,10.00
2011,03,30,12,07,9.80
2011,03,30,12,08,9.60
2011,03,30,12,09,9.40
2011,03,30,12,10,9.30
2011,03,30,12,11,9.20
2011,03,30,12,12,9.20
2011,03,30,12,13,9.20
2011,03,30,12,14,9.20
2011,03,30,12,15,9.10
2011,03,30,12,16,9.10
2011,03,30,12,17,9.10
2011,03,30,12,18,9.10
2011,03,30,12,19,9.00
2011,03,30,12,20,9.00
2011,03,30,12,21,9.00
2011,03,30,12,22,9.00
2011,03,30,12,23,8.90
2011,03,30,12,24,8.90
2011,03,30,12,25,8.90
2011,03,30,12,26,8.90
2011,03,30,12,27,8.90
2011,03,30,12,28,8.90
2011,03,30,12,29,8.90
2011,03,30,12,30,8.80
2011,03,30,12,31,8.80
2011,03,30,12,32,8.80
2011,03,30,12,33,8.80
2011,03,30,12,34,8.90
2011,03,30,12,35,8.90
2011,03,30,12,36,8.90
2011,03,30,12,37,9.00
2011,03,30,12,38,9.00
2011,03,30,12,39,9.00
2011,03,30,12,40,9.00
2011,03,30,12,41,9.00
2011,03,30,12,42,8.90
2011,03,30,12,43,8.90
2011,03,30,12,44,8.90
2011,03,30,12,45,8.80
2011,03,30,12,46,8.80
2011,03,30,12,47,8.80
2011,03,30,12,48,8.80
2011,03,30,12,49,8.80
2011,03,30,12,50,8.80
2011,03,30,12,51,8.80
2011,03,30,12,52,8.80
2011,03,30,12,53,8.80
2011,03,30,12,54,8.80
2011,03,30,12,55,8.70
2011,03,30,12,56,8.70
2011,03,30,12,57,8.70
2011,03,30,12,58,8.80
2011,03,30,12,59,8.80
2011,03,30,13,00,8.80
2011,03,30,13,01,8.80
2011,03,30,13,02,8.70
2011,03,30,13,03,8.70
2011,03,30,13,04,8.70
2011,03,30,13,05,8.80
2011,03,30,13,06,8.80
2011,03,30,13,07,8.80
2011,03,30,13,08,8.80
2011,03,30,13,09,8.80
2011,03,30,13,10,8.90
2011,03,30,13,11,8.90
2011,03,30,13,12,8.90
2011,03,30,13,13,8.90
2011,03,30,13,14,8.90
2011,03,30,13,15,8.90
2011,03,30,13,16,8.90
2011,03,30,13,17,8.80
2011,03,30,13,18,8.80
2011,03,30,13,19,8.80
2011,03,30,13,20,8.80
2011,03,30,13,21,8.80
2011,03,30,13,22,8.70
2011,03,30,13,23,8.70
2011,03,30,13,24,8.80
2011,03,30,13,25,8.80
2011,03,30,13,26,8.80
2011,03,30,13,27,8.80
2011,03,30,13,28,8.90
2011,03,30,13,29,8.90
2011,03,30,13,30,8.90
2011,03,30,13,31,9.00
2011,03,30,13,32,9.00
2011,03,30,13,33,9.10
2011,03,30,13,34,9.20
2011,03,30,13,35,9.20
2011,03,30,13,36,9.20
2011,03,30,13,37,9.30
2011,03,30,13,38,9.30
2011,03,30,13,39,9.30
2011,03,30,13,40,9.30
2011,03,30,13,41,9.20
2011,03,30,13,42,9.20
2011,03,30,13,43,9.20
2011,03,30,13,44,9.20
2011,03,30,13,45,9.20
2011,03,30,13,46,9.20
2011,03,30,13,47,9.20
2011,03,30,13,48,9.20
2011,03,30,13,49,9.10
2011,03,30,13,50,9.10
2011,03,30,13,51,9.00
2011,03,30,13,52,9.00
2011,03,30,13,53,8.90
2011,03,30,13,54,8.90
2011,03,30,13,55,9.00
2011,03,30,13,56,9.00
2011,03,30,13,57,9.00
2011,03,30,13,58,9.00
2011,03,30,13,59,9.00
2011,03,30,14,00,9.00
2011,03,30,14,01,9.10
2011,03,30,14,02,9.10
2011,03,30,14,03,9.20
2011,03,30,14,04,9.20
2011,03,30,14,05,9.30
2011,03,30,14,06,9.30
2011,03,30,14,07,9.30
2011,03,30,14,08,9.30
2011,03,30,14,09,9.30
2011,03,30,14,10,9.30
2011,03,30,14,11,9.30
2011,03,30,14,12,9.20
2011,03,30,14,13,9.30
2011,03,30,14,14,9.30
2011,03,30,14,15,9.30
2011,03,30,14,16,9.30
2011,03,30,14,17,9.40
2011,03,30,14,18,9.40
2011,03,30,14,19,9.50
2011,03,30,14,20,9.50
2011,03,30,14,21,9.60
2011,03,30,14,22,9.60
2011,03,30,14,23,9.60
2011,03,30,14,24,9.60
2011,03,30,14,25,9.60
2011,03,30,14,26,9.50
2011,03,30,14,27,9.50
2011,03,30,14,28,9.40
2011,03,30,14,29,9.40
2011,03,30,14,30,9.40
2011,03,30,14,31,9.40
2011,03,30,14,32,9.40
2011,03,30,14,33,9.50
2011,03,30,14,34,9.60
2011,03,30,14,35,9.60
2011,03,30,14,36,9.70
2011,03,30,14,37,9.80
2011,03,30,14,38,9.80
2011,03,30,14,39,9.80
2011,03,30,14,40,9.70
2011,03,30,14,41,9.70
2011,03,30,14,42,9.70
2011,03,30,14,43,9.60
2011,03,30,14,44,9.60
2011,03,30,14,45,9.50
2011,03,30,14,46,9.50
2011,03,30,14,47,9.50
2011,03,30,14,48,9.60
2011,03,30,14,49,9.60
2011,03,30,14,50,9.60
2011,03,30,14,51,9.60
2011,03,30,14,52,9.70
2011,03,30,14,53,9.70
2011,03,30,14,54,9.70
2011,03,30,14,55,9.70
2011,03,30,14,56,9.70
2011,03,30,14,57,9.80
2011,03,30,14,58,9.80
2011,03,30,14,59,9.90
2011,03,30,15,00,9.90
2011,03,30,15,01,10.00
2011,03,30,15,02,10.00
2011,03,30,15,03,10.00
2011,03,30,15,04,10.10
2011,03,30,15,05,10.10
2011,03,30,15,06,10.10
2011,03,30,15,07,10.20
2011,03,30,15,08,10.20
2011,03,30,15,09,10.20
2011,03,30,15,10,10.20
2011,03,30,15,11,10.10
2011,03,30,15,12,10.20
2011,03,30,15,13,10.20
2011,03,30,15,14,10.20
2011,03,30,15,15,10.20
2011,03,30,15,16,10.20
2011,03,30,15,17,10.20
2011,03,30,15,18,10.10
2011,03,30,15,19,10.10
2011,03,30,15,20,10.00
2011,03,30,15,21,9.90
2011,03,30,15,22,9.70
2011,03,30,15,23,9.70
2011,03,30,15,24,9.60
2011,03,30,15,25,9.60
2011,03,30,15,26,9.60
2011,03,30,15,27,9.60
2011,03,30,15,28,9.60
2011,03,30,15,29,9.60
2011,03,30,15,30,9.60
2011,03,30,15,31,9.70
2011,03,30,15,32,9.70
2011,03,30,15,33,9.70
2011,03,30,15,34,9.70
2011,03,30,15,35,9.70
2011,03,30,15,36,9.70
2011,03,30,15,37,9.70
2011,03,30,15,38,9.70
2011,03,30,15,39,9.70
2011,03,30,15,40,9.70
2011,03,30,15,41,9.70
2011,03,30,15,42,9.70
2011,03,30,15,43,9.70
2011,03,30,15,44,9.70
2011,03,30,15,45,9.80
2011,03,30,15,46,9.80
2011,03,30,15,47,9.80
2011,03,30,15,48,9.80
2011,03,30,15,49,9.70
2011,03,30,15,50,9.70
2011,03,30,15,51,9.70
2011,03,30,15,52,9.70
2011,03,30,15,53,9.60
2011,03,30,15,54,9.60
2011,03,30,15,55,9.60
2011,03,30,15,56,9.60
2011,03,30,15,57,9.60
2011,03,30,15,58,9.60
2011,03,30,15,59,9.60
2011,03,30,16,00,9.70
2011,03,30,16,01,9.70
2011,03,30,16,02,9.70
2011,03,30,16,03,9.60
2011,03,30,16,04,9.60
2011,03,30,16,05,9.60
2011,03,30,16,06,9.60
2011,03,30,16,07,9.50
2011,03,30,16,08,9.50
2011,03,30,16,09,9.50
2011,03,30,16,10,9.50
2011,03,30,16,11,9.50
2011,03,30,16,12,9.50
2011,03,30,16,13,9.50
2011,03,30,16,14,9.50
2011,03,30,16,15,9.60
2011,03,30,16,16,9.60
2011,03,30,16,17,9.70
2011,03,30,16,18,9.70
2011,03,30,16,19,9.70
2011,03,30,16,20,9.70
2011,03,30,16,21,9.70
2011,03,30,16,22,9.70
2011,03,30,16,23,9.70
2011,03,30,16,24,9.70
2011,03,30,16,25,9.70
2011,03,30,16,26,9.70
2011,03,30,16,27,9.80
2011,03,30,16,28,9.80
2011,03,30,16,29,9.80
2011,03,30,16,30,9.80
2011,03,30,16,31,9.80
2011,03,30,16,32,9.70
2011,03,30,16,33,9.70
2011,03,30,16,34,9.70
2011,03,30,16,35,9.70
2011,03,30,16,36,9.70
2011,03,30,16,37,9.70
2011,03,30,16,38,9.70
2011,03,30,16,39,9.70
2011,03,30,16,40,9.70
2011,03,30,16,41,9.60
2011,03,30,16,42,9.60
2011,03,30,16,43,9.60
2011,03,30,16,44,9.60
2011,03,30,16,45,9.60
2011,03,30,16,46,9.50
2011,03,30,16,47,9.50
2011,03,30,16,48,9.40
2011,03,30,16,49,9.40
2011,03,30,16,50,9.30
2011,03,30,16,51,9.30
2011,03,30,16,52,9.30
2011,03,30,16,53,9.30
2011,03,30,16,54,9.30
2011,03,30,16,55,9.30
2011,03,30,16,56,9.30
2011,03,30,16,57,9.30
2011,03,30,16,58,9.40
2011,03,30,16,59,9.40
2011,03,30,17,00,9.40
2011,03,30,17,01,9.40
2011,03,30,17,02,9.40
2011,03,30,17,03,9.40
2011,03,30,17,04,9.40
2011,03,30,17,05,9.40
2011,03,30,17,06,9.40
2011,03,30,17,07,9.40
2011,03,30,17,08,9.40
2011,03,30,17,09,9.40
2011,03,30,17,10,9.40
2011,03,30,17,11,9.40
2011,03,30,17,12,9.50
2011,03,30,17,13,9.50
2011,03,30,17,14,9.50
2011,03,30,17,15,9.40
2011,03,30,17,16,9.40
2011,03,30,17,17,9.40
2011,03,30,17,18,9.40
2011,03,30,17,19,9.50
2011,03,30,17,20,9.50
2011,03,30,17,21,9.50
2011,03,30,17,22,9.60
2011,03,30,17,23,9.60
2011,03,30,17,24,9.60
2011,03,30,17,25,9.60
2011,03,30,17,26,9.60
2011,03,30,17,27,9.60
2011,03,30,17,28,9.60
2011,03,30,17,29,9.60
2011,03,30,17,30,9.60
2011,03,30,17,31,9.60
2011,03,30,17,32,9.70
2011,03,30,17,33,9.70
2011,03,30,17,34,9.70
2011,03,30,17,35,9.70
2011,03,30,17,36,9.70
2011,03,30,17,37,9.70
2011,03,30,17,38,9.80
2011,03,30,17,39,9.80
2011,03,30,17,40,9.80
2011,03,30,17,41,9.80
2011,03,30,17,42,9.80
2011,03,30,17,43,9.80
2011,03,30,17,44,9.80
2011,03,30,17,45,9.80
2011,03,30,17,46,9.80
2011,03,30,17,47,9.80
2011,03,30,17,48,9.70
2011,03,30,17,49,9.70
2011,03,30,17,50,9.70
2011,03,30,17,51,9.70
2011,03,30,17,52,9.70
2011,03,30,17,53,9.60
2011,03,30,17,54,9.60
2011,03,30,17,55,9.60
2011,03,30,17,56,9.60
2011,03,30,17,57,9.50
2011,03,30,17,58,9.50
2011,03,30,17,59,9.40
2011,03,30,18,00,9.40
2011,03,30,18,01,9.40
2011,03,30,18,02,9.40
2011,03,30,18,03,9.40
2011,03,30,18,04,9.40
2011,03,30,18,05,9.40